Weather in Khamamatyurt

Russia / Republic of Dagestan     43°36′23″N   46°30′08″E
temp.,
°C
wind,
m/s
gust,
m/s
humid.,
%
clouds,
%
prec.,
mm/h
press.,
hPa
HPBL,
m
12 april, mon
mon1200:00+10wnw117999 0.0 101511
03:00+10w2277100 0.0 101643
06:00+10w487579 0.0 1017221
09:00+15wnw5658100 0.0 1019778
12:00+17nw3352100 0.0 10191187
15:00+18wnw1150100 0.0 10191270
18:00+16sw1164100 0.0 102013
21:00+11ese34885 0.0 102176
13 april, tue
tue1300:00+11se228727 0.0 102121
03:00+10nne11891 0.0 102112
06:00+9ene2290100 0.0 102242
09:00+15ese3470100 0.0 1021543
12:00+20ese7103827 0.0 10191575
15:00+20e911365 0.0 10181086
18:00+14e5958100 0.0 1018315
21:00+10ese337399 0.0 101947
14 april, wed
wed1400:00+9w348548 0.0 101871
03:00+9w489482 0.0 1017183
06:00+10w4991100 0.1 1016294
09:00+15w6768100 0.2 1017889
12:00+15w6670100 0.5 1016865
15:00+14w5671100 0.8 1016758
18:00+14w577093 0.1 1016280
21:00+12wsw5107742 0.1 1017278
15 april, thu
thu1500:00+10w358624 0.0 101684
03:00+9w348744 0.0 101653
06:00+10w368595 0.0 1016132
09:00+16wnw45580 0.0 1016720
12:00+20nw33410 0.0 10151345
15:00+22n22370 0.0 10141771
18:00+18e11494 0.0 101411
21:00+15sse22565 0.0 101513
16 april, fri
fri1600:00+12nw116499 0.0 101510
03:00+12wsw336692 0.0 101521
06:00+12wnw336970 0.0 101648
09:00+19nw335189 0.0 1016587
12:00+22nnw3339100 0.0 10161460
15:00+23n323691 0.0 10152279
18:00+19wnw474782 0.0 1016140
21:00+17ssw2255100 0.0 101722